World > North America > United States > Montana   City of Glasgow, MT

Hourly Glasgow, MT Regional Weather

Feedback E-mail the Weather

Quick WX

Glasgow, MT Weather Maps

°F °C°F °C
Glasgow Weather Map
UTC Time: 6/28/2022, 23:45
Your Time:

Glasgow, MT Regional Weather

Expires:202206290000;;354427
ASUS45 KTFX 282310
RWRMT 
Montana Regional Weather Roundup
National Weather Service Great Falls MT
500 PM MDT TUE JUN 28 2022

NOTE: "FAIR" indicates few or no clouds below 12,000 feet with no
significant weather and/or obstructions to visibility.


MTZ017>020-022>027-061-062-290000-
Northeast Montana
  
CITY           SKY/WX    TMP DP  RH WIND       PRES   REMARKS
Glasgow        SUNNY     85  51  31 SE18G28   29.96F                  
Glendive       SUNNY     85  58  39 E16G22    30.00F                  
Jordan           N/A     95  52  23 E18G30    29.91F HX  92           
Malta          SUNNY     84  48  28 SE16G23   29.91F                  
Plentywood     SUNNY     72  54  53 E14       30.06F                  
Sidney         SUNNY     81  57  43 E10       30.02F                  
Wolf Point     SUNNY     83  52  34 E17G26    29.99F                  
$$


SKY/WX - Weather  TMP - Temperature  DP - Dew Point  RH - Humidity
WIND - Wind Direction/Speed PRES - Barometric Pressure VSB - Visibility
WCI - Wind Chill Index E13G22 Wind - East Wind 13 mph/Gusts of 22 mph

Trending Headlines

Glasgow Radar Loop



Glasgow Quick Facts


National Two Day Weather Forecast


E-mail the Glasgow Weather Forecast

Voice your opinion or tell us about page issues...